StationID,Date,MaxTemp,MinTemp,Precipitation,Snowfall,SnowDepth
"USR0000APAM","2012-09-04",41.00,37.04,,,
"USR0000APAM","2012-09-05",39.02,33.08,,,
"USR0000APAM","2012-09-06",35.06,32.00,,,
"USR0000APAM","2012-09-07",35.06,28.94,,,
"USR0000APAM","2012-09-08",30.92,19.94,,,
"USR0000APAM","2012-09-09",30.02,17.96,,,
"USR0000APAM","2012-09-10",35.96,21.02,,,
"USR0000APAM","2012-09-11",32.00,28.04,,,
"USR0000APAM","2012-09-12",32.00,26.96,,,
"USR0000APAM","2012-09-13",30.02,26.96,,,
"USR0000APAM","2012-09-14",30.92,26.96,,,
"USR0000APAM","2012-09-15",30.92,26.96,,,
"USR0000APAM","2012-09-16",37.04,28.94,,,
"USR0000APAM","2012-09-17",33.08,28.04,,,
"USR0000APAM","2012-09-18",30.02,24.98,,,
"USR0000APAM","2012-09-19",33.08,30.02,,,
"USR0000APAM","2012-09-20",35.06,30.92,,,
"USR0000APAM","2012-09-21",35.06,30.02,,,
"USR0000APAM","2012-09-22",44.06,33.98,,,
"USR0000APAM","2012-09-23",44.06,32.00,,,
"USR0000APAM","2012-09-24",30.02,19.94,,,
"USR0000APAM","2012-09-25",28.04,19.04,,,
"USR0000APAM","2012-09-26",24.98,21.02,,,
"USR0000APAM","2012-09-27",23.00,19.94,,,
"USR0000APAM","2012-09-28",26.06,21.02,,,
"USR0000APAM","2012-09-29",24.98,23.00,,,
"USR0000APAM","2012-09-30",24.98,23.00,,,
"USR0000APAM","2014-01-01",15.98,12.02,,,
"USR0000APAM","2014-01-02",14.00,8.96,,,
"USR0000APAM","2014-01-03",10.04,6.08,,,
"USR0000APAM","2014-01-04",17.96,6.98,,,
"USR0000APAM","2014-01-05",19.04,10.94,,,
"USR0000APAM","2014-01-06",14.00,10.04,,,
"USR0000APAM","2014-01-07",14.00,1.94,,,
"USR0000APAM","2014-01-08",1.94,-7.06,,,
"USR0000APAM","2014-01-09",-5.08,-11.92,,,
"USR0000APAM","2014-01-10",-2.92,-9.94,,,
"USR0000APAM","2014-01-11",-9.04,-13.00,,,
"USR0000APAM","2014-01-12",-9.04,-14.98,,,
"USR0000APAM","2014-01-13",-7.96,-11.92,,,
"USR0000APAM","2014-01-14",-0.04,-7.96,,,
"USR0000APAM","2014-01-15",-4.00,-16.06,,,
"USR0000APAM","2014-01-16",-5.08,-14.98,,,
"USR0000APAM","2014-01-17",3.92,-16.06,,,
"USR0000APAM","2014-01-18",12.92,5.00,,,
"USR0000APAM","2014-01-19",12.02,6.98,,,
"USR0000APAM","2014-01-20",21.02,10.94,,,
"USR0000APAM","2014-01-21",28.04,23.00,,,
"USR0000APAM","2014-01-22",24.08,19.04,,,
"USR0000APAM","2014-01-23",28.04,21.92,,,
"USR0000APAM","2014-01-24",30.02,26.96,,,
"USR0000APAM","2014-01-25",30.02,26.96,,,
"USR0000APAM","2014-01-26",35.96,30.02,,,
"USR0000APAM","2014-01-27",42.98,33.98,,,
"USR0000APAM","2014-01-28",41.00,33.08,,,
"USR0000APAM","2014-01-29",33.08,24.08,,,
"USR0000APAM","2014-01-30",26.06,21.92,,,
"USR0000APAM","2014-01-31",24.08,21.92,,,
"USR0000APAM","2014-02-01",24.98,21.92,,,
"USR0000APAM","2014-02-02",24.08,19.94,,,
"USR0000APAM","2014-02-03",24.08,21.02,,,
"USR0000APAM","2014-02-04",21.92,17.96,,,
"USR0000APAM","2014-02-05",17.96,8.06,,,
"USR0000APAM","2014-02-06",12.02,-5.98,,,
"USR0000APAM","2014-02-07",-2.92,-5.98,,,
"USR0000APAM","2014-02-08",1.94,-5.08,,,
"USR0000APAM","2014-02-09",3.02,-7.96,,,
"USR0000APAM","2014-02-10",-0.04,-9.04,,,
"USR0000APAM","2014-02-11",-2.02,-18.04,,,
"USR0000APAM","2014-02-12",-18.94,-29.02,,,
"USR0000APAM","2014-02-13",-25.96,-27.94,,,
"USR0000APAM","2014-02-14",-22.00,-27.94,,,
"USR0000APAM","2014-02-15",-14.08,-25.06,,,
"USR0000APAM","2014-02-16",-9.04,-27.94,,,
"USR0000APAM","2014-02-17",-20.92,-29.92,,,
"USR0000APAM","2014-02-18",-14.98,-25.06,,,
"USR0000APAM","2014-02-19",-9.94,-16.06,,,
"USR0000APAM","2014-02-20",-0.94,-9.94,,,
"USR0000APAM","2014-02-21",3.02,-7.96,,,
"USR0000APAM","2014-02-22",12.92,1.94,,,
"USR0000APAM","2014-02-23",21.02,12.92,,,
"USR0000APAM","2014-02-24",28.94,17.96,,,
"USR0000APAM","2014-02-25",21.92,10.94,,,
"USR0000APAM","2014-02-26",28.04,10.94,,,
"USR0000APAM","2014-02-27",30.92,26.96,,,
"USR0000APAM","2014-02-28",30.02,19.94,,,
"USR0000APAM","2014-03-01",28.04,19.04,,,
"USR0000APAM","2014-03-02",17.96,3.92,,,
"USR0000APAM","2014-03-03",3.92,-9.94,,,
"USR0000APAM","2014-03-04",-9.94,-14.98,,,
"USR0000APAM","2014-03-05",-7.96,-14.98,,,
"USR0000APAM","2014-03-06",1.94,-7.96,,,
"USR0000APAM","2014-03-07",3.92,-5.98,,,
"USR0000APAM","2014-03-08",-5.08,-14.98,,,
"USR0000APAM","2014-03-09",-14.08,-18.04,,,
"USR0000APAM","2014-03-10",-2.92,-16.06,,,
"USR0000APAM","2014-03-11",15.98,-2.92,,,
"USR0000APAM","2014-03-12",19.04,15.98,,,
"USR0000APAM","2014-03-13",23.00,15.98,,,
"USR0000APAM","2014-03-14",32.00,19.94,,,
"USR0000APAM","2014-03-15",24.98,1.94,,,
"USR0000APAM","2014-03-16",12.02,1.04,,,
"USR0000APAM","2014-03-17",17.06,8.96,,,
"USR0000APAM","2014-03-18",23.00,12.02,,,
"USR0000APAM","2014-03-19",14.00,8.96,,,
"USR0000APAM","2014-03-20",19.94,10.04,,,
"USR0000APAM","2014-03-21",19.94,12.02,,,
"USR0000APAM","2014-03-22",24.98,15.98,,,
"USR0000APAM","2014-03-23",37.94,24.98,,,
"USR0000APAM","2014-03-24",37.04,26.96,,,
"USR0000APAM","2014-03-25",28.94,24.98,,,
"USR0000APAM","2014-03-26",28.94,24.08,,,
"USR0000APAM","2014-03-27",33.98,19.94,,,
"USR0000APAM","2014-03-28",24.98,15.98,,,
"USR0000APAM","2014-03-29",26.06,19.04,,,
"USR0000APAM","2014-03-30",24.08,14.00,,,
"USR0000APAM","2014-03-31",21.02,12.02,,,
"USR0000APAM","2014-04-01",12.02,8.96,,,
"USR0000APAM","2014-04-02",17.06,8.06,,,
"USR0000APAM","2014-04-03",21.02,8.96,,,
"USR0000APAM","2014-04-04",17.06,10.94,,,
"USR0000APAM","2014-04-05",12.02,-0.94,,,
"USR0000APAM","2014-04-06",5.00,-4.00,,,
"USR0000APAM","2014-04-07",-2.92,-11.92,,,
"USR0000APAM","2014-04-08",-9.04,-14.98,,,
"USR0000APAM","2014-04-09",-0.04,-13.00,,,
"USR0000APAM","2014-04-10",5.00,-2.02,,,
"USR0000APAM","2014-04-11",8.96,-0.04,,,
"USR0000APAM","2014-04-12",15.08,6.98,,,
"USR0000APAM","2014-04-13",26.06,14.00,,,
"USR0000APAM","2014-04-14",28.94,24.08,,,
"USR0000APAM","2014-04-15",35.06,28.04,,,
"USR0000APAM","2014-04-16",28.04,21.92,,,
"USR0000APAM","2014-04-17",21.92,19.94,,,
"USR0000APAM","2014-04-18",26.06,17.96,,,
"USR0000APAM","2014-04-19",32.00,24.98,,,
"USR0000APAM","2014-04-20",30.02,19.94,,,
"USR0000APAM","2014-04-21",30.02,24.98,,,
"USR0000APAM","2014-04-22",33.08,24.08,,,
"USR0000APAM","2014-04-23",33.08,26.06,,,
"USR0000APAM","2014-04-24",30.92,21.92,,,
"USR0000APAM","2014-04-25",35.06,28.04,,,
"USR0000APAM","2014-04-26",35.06,28.94,,,
"USR0000APAM","2014-04-27",37.04,28.94,,,
"USR0000APAM","2014-04-28",35.06,28.04,,,
"USR0000APAM","2014-04-29",32.00,26.06,,,
"USR0000APAM","2014-04-30",32.00,24.08,,,
"USR0000APAM","2014-05-01",42.98,30.92,,,
"USR0000APAM","2014-05-02",46.94,37.04,,,
"USR0000APAM","2014-05-03",46.94,39.02,,,
"USR0000APAM","2014-05-04",41.00,23.00,,,
"USR0000APAM","2014-05-05",28.94,19.04,,,
"USR0000APAM","2014-05-06",32.00,21.92,,,
"USR0000APAM","2014-05-07",28.04,17.96,,,
"USR0000APAM","2014-05-08",30.02,17.06,,,
"USR0000APAM","2014-05-09",35.06,23.00,,,
"USR0000APAM","2014-05-10",39.02,30.92,,,
"USR0000APAM","2014-05-11",46.04,35.06,,,
"USR0000APAM","2014-05-12",48.02,39.02,,,
"USR0000APAM","2014-05-13",44.06,26.06,,,
"USR0000APAM","2014-05-14",41.00,26.96,,,
"USR0000APAM","2014-05-15",46.94,37.04,,,
"USR0000APAM","2014-05-16",46.04,37.04,,,
"USR0000APAM","2014-05-17",39.92,26.06,,,
"USR0000APAM","2014-05-18",24.98,17.06,,,
"USR0000APAM","2014-05-19",35.06,15.98,,,
"USR0000APAM","2014-05-20",39.92,28.94,,,
"USR0000APAM","2014-05-21",32.00,23.00,,,
"USR0000APAM","2014-05-22",35.96,19.94,,,
"USR0000APAM","2014-05-23",28.94,21.02,,,
"USR0000APAM","2014-05-24",39.02,19.94,,,
"USR0000APAM","2014-05-25",35.96,30.02,,,
"USR0000APAM","2014-05-26",39.92,30.02,,,
"USR0000APAM","2014-05-27",39.92,35.06,,,
"USR0000APAM","2014-05-28",42.98,35.96,,,
"USR0000APAM","2014-05-29",48.92,39.02,,,
"USR0000APAM","2014-05-30",51.98,42.08,,,
"USR0000APAM","2014-05-31",48.92,41.00,,,
"USR0000APAM","2014-06-01",41.00,32.00,,,
"USR0000APAM","2014-06-02",42.98,33.98,,,
"USR0000APAM","2014-06-03",51.98,37.94,,,
"USR0000APAM","2014-06-04",48.02,39.92,,,
"USR0000APAM","2014-06-05",48.02,37.94,,,
"USR0000APAM","2014-06-06",42.98,35.06,,,
"USR0000APAM","2014-06-07",51.98,35.96,,,
"USR0000APAM","2014-06-08",57.02,46.04,,,
"USR0000APAM","2014-06-09",48.02,44.06,,,
"USR0000APAM","2014-06-10",48.92,41.00,,,
"USR0000APAM","2014-06-11",42.08,33.98,,,
"USR0000APAM","2014-06-12",44.06,33.08,,,
"USR0000APAM","2014-06-13",50.00,37.94,,,
"USR0000APAM","2014-06-14",53.06,41.00,,,
"USR0000APAM","2014-06-15",57.02,44.96,,,
"USR0000APAM","2014-06-16",55.94,44.06,,,
"USR0000APAM","2014-06-17",57.92,44.96,,,
"USR0000APAM","2014-06-18",51.08,44.06,,,
"USR0000APAM","2014-06-19",51.08,39.92,,,
"USR0000APAM","2014-06-20",53.96,42.08,,,
"USR0000APAM","2014-06-21",57.02,48.92,,,
"USR0000APAM","2014-06-22",51.98,42.98,,,
"USR0000APAM","2014-06-23",46.04,42.98,,,
"USR0000APAM","2014-06-24",53.96,42.98,,,
"USR0000APAM","2014-06-25",57.02,46.94,,,
"USR0000APAM","2014-06-26",50.00,42.08,,,
"USR0000APAM","2014-06-27",44.06,39.92,,,
"USR0000APAM","2014-06-28",50.00,39.92,,,
"USR0000APAM","2014-06-29",57.92,44.96,,,
"USR0000APAM","2014-06-30",60.98,50.00,,,
"USR0000APAM","2014-07-01",62.06,53.06,,,
"USR0000APAM","2014-07-02",57.02,48.92,,,
"USR0000APAM","2014-07-03",53.96,46.04,,,
"USR0000APAM","2014-07-04",60.98,46.04,,,
"USR0000APAM","2014-07-05",66.02,53.96,,,
"USR0000APAM","2014-07-06",68.00,59.00,,,
"USR0000APAM","2014-07-07",64.94,59.00,,,
"USR0000APAM","2014-07-08",66.02,55.04,,,
"USR0000APAM","2014-07-09",57.92,50.00,,,
"USR0000APAM","2014-07-10",62.06,50.00,,,
"USR0000APAM","2014-07-11",57.02,48.92,,,
"USR0000APAM","2014-07-12",48.92,46.94,,,
"USR0000APAM","2014-07-13",48.02,42.98,,,
"USR0000APAM","2014-07-14",48.92,42.98,,,
"USR0000APAM","2014-07-15",53.06,42.98,,,
"USR0000APAM","2014-07-16",48.92,44.96,,,
"USR0000APAM","2014-07-17",46.94,42.98,,,
"USR0000APAM","2014-07-18",46.04,39.02,,,
"USR0000APAM","2014-07-19",41.00,35.96,,,
"USR0000APAM","2014-07-20",48.92,35.96,,,
"USR0000APAM","2014-07-21",41.00,37.94,,,
"USR0000APAM","2014-07-22",44.06,39.02,,,
"USR0000APAM","2014-07-23",46.94,39.92,,,
"USR0000APAM","2014-07-24",39.92,35.06,,,
"USR0000APAM","2014-07-25",39.02,30.92,,,
"USR0000APAM","2014-07-26",44.96,30.02,,,
"USR0000APAM","2014-07-27",51.08,39.02,,,
"USR0000APAM","2014-07-28",51.98,39.92,,,
"USR0000APAM","2014-07-29",55.04,37.04,,,
"USR0000APAM","2014-07-30",62.96,44.96,,,
"USR0000APAM","2014-07-31",60.08,46.94,,,
"USR0000APAM","2014-08-01",60.08,46.94,,,
"USR0000APAM","2014-08-02",55.04,46.94,,,
"USR0000APAM","2014-08-03",60.08,44.06,,,
"USR0000APAM","2014-08-04",57.92,44.96,,,
"USR0000APAM","2014-08-05",62.06,44.06,,,
"USR0000APAM","2014-08-06",60.98,50.00,,,
"USR0000APAM","2014-08-07",50.00,46.94,,,
"USR0000APAM","2014-08-08",57.92,46.94,,,
"USR0000APAM","2014-08-09",57.02,48.92,,,
"USR0000APAM","2014-08-10",57.92,48.92,,,
"USR0000APAM","2014-08-11",60.98,48.92,,,
"USR0000APAM","2014-08-12",59.00,51.08,,,
"USR0000APAM","2014-08-13",57.02,48.92,,,
"USR0000APAM","2014-08-14",53.96,48.92,,,
"USR0000APAM","2014-08-15",57.92,48.92,,,
"USR0000APAM","2014-08-16",51.98,46.94,,,
"USR0000APAM","2014-08-17",55.94,46.04,,,
"USR0000APAM","2014-08-18",55.04,46.04,,,
"USR0000APAM","2014-08-19",53.96,48.02,,,
"USR0000APAM","2014-08-20",55.04,46.04,,,
"USR0000APAM","2014-08-21",48.02,44.06,,,
"USR0000APAM","2014-08-22",50.00,42.08,,,
"USR0000APAM","2014-08-23",53.06,42.98,,,
"USR0000APAM","2014-08-24",53.96,44.06,,,
"USR0000APAM","2014-08-25",55.94,44.96,,,
"USR0000APAM","2014-08-26",51.08,42.98,,,
"USR0000APAM","2014-08-27",48.92,41.00,,,
"USR0000APAM","2014-08-28",44.96,39.92,,,
"USR0000APAM","2014-08-29",39.92,28.94,,,
"USR0000APAM","2014-08-30",33.98,30.02,,,
"USR0000APAM","2014-08-31",35.06,30.02,,,
"USR0000APAM","2014-09-01",33.98,30.02,,,
"USR0000APAM","2014-09-02",32.00,26.06,,,
"USR0000APAM","2014-09-03",30.92,23.00,,,
"USR0000APAM","2014-09-04",32.00,24.98,,,
"USR0000APAM","2014-09-05",37.94,23.00,,,
"USR0000APAM","2014-09-06",42.08,30.02,,,
"USR0000APAM","2014-09-07",46.04,33.08,,,
"USR0000APAM","2014-09-08",48.02,35.96,,,
"USR0000APAM","2014-09-09",50.00,39.02,,,
"USR0000APAM","2014-09-10",48.92,41.00,,,
"USR0000APAM","2014-09-11",46.94,41.00,,,
"USR0000APAM","2014-09-12",53.06,44.06,,,
"USR0000APAM","2014-09-13",51.08,46.04,,,
"USR0000APAM","2014-09-14",48.92,44.96,,,
"USR0000APAM","2014-09-15",53.96,44.06,,,
"USR0000APAM","2014-09-16",48.02,41.00,,,
"USR0000APAM","2014-09-17",48.02,37.94,,,
"USR0000APAM","2014-09-18",46.04,39.92,,,
"USR0000APAM","2014-09-19",44.06,37.04,,,
"USR0000APAM","2014-09-20",39.02,26.96,,,
"USR0000APAM","2014-09-21",28.04,21.92,,,
"USR0000APAM","2014-09-22",28.94,19.94,,,
"USR0000APAM","2014-09-23",28.94,21.92,,,
"USR0000APAM","2014-09-24",28.04,21.02,,,
"USR0000APAM","2014-09-25",30.92,24.08,,,
"USR0000APAM","2014-09-26",30.02,24.08,,,
"USR0000APAM","2014-09-27",35.06,26.06,,,
"USR0000APAM","2014-09-28",28.94,24.98,,,
"USR0000APAM","2014-09-29",28.04,23.00,,,
"USR0000APAM","2014-09-30",30.02,24.08,,,
"USR0000APAM","2014-10-01",28.94,24.98,,,
"USR0000APAM","2014-10-02",28.04,19.04,,,
"USR0000APAM","2014-10-03",19.04,15.08,,,
"USR0000APAM","2014-10-04",19.94,14.00,,,
"USR0000APAM","2014-10-05",19.04,12.92,,,
"USR0000APAM","2014-10-06",14.00,8.96,,,
"USR0000APAM","2014-10-07",14.00,8.06,,,
"USR0000APAM","2014-10-08",12.02,6.98,,,
"USR0000APAM","2014-10-09",17.96,8.96,,,
"USR0000APAM","2014-10-10",17.06,12.02,,,
"USR0000APAM","2014-10-11",15.08,14.00,,,
"USR0000APAM","2014-10-12",17.06,14.00,,,
"USR0000APAM","2014-10-13",17.96,15.08,,,
"USR0000APAM","2014-10-14",23.00,17.06,,,
"USR0000APAM","2014-10-15",21.92,19.04,,,
"USR0000APAM","2014-10-16",19.94,17.06,,,
"USR0000APAM","2014-10-17",24.08,17.06,,,
"USR0000APAM","2014-10-18",21.02,12.02,,,
"USR0000APAM","2014-10-19",19.94,12.02,,,
"USR0000APAM","2014-10-20",24.98,19.04,,,
"USR0000APAM","2014-10-21",21.92,15.98,,,
"USR0000APAM","2014-10-22",17.96,15.98,,,
"USR0000APAM","2014-10-23",17.96,15.98,,,
"USR0000APAM","2014-10-24",17.06,8.96,,,
"USR0000APAM","2014-10-25",17.06,6.98,,,
"USR0000APAM","2014-10-26",17.96,15.08,,,
"USR0000APAM","2014-10-27",17.06,15.08,,,
"USR0000APAM","2014-10-28",21.02,17.06,,,
"USR0000APAM","2014-10-29",17.96,8.96,,,
"USR0000APAM","2014-10-30",10.94,3.92,,,
"USR0000APAM","2014-10-31",3.92,-0.04,,,
"USR0000APAM","2014-11-01",6.98,-0.04,,,
"USR0000APAM","2014-11-02",15.08,10.04,,,
"USR0000APAM","2014-11-03",15.08,10.94,,,
"USR0000APAM","2014-11-04",10.94,3.92,,,
"USR0000APAM","2014-11-05",15.08,5.00,,,
"USR0000APAM","2014-11-06",12.92,5.00,,,
"USR0000APAM","2014-11-07",19.04,6.08,,,
"USR0000APAM","2014-11-08",23.00,19.04,,,
"USR0000APAM","2014-11-09",26.96,21.92,,,
"USR0000APAM","2014-11-10",26.96,24.98,,,
"USR0000APAM","2014-11-11",30.92,26.06,,,
"USR0000APAM","2014-11-12",32.00,30.92,,,
"USR0000APAM","2014-11-13",37.94,33.08,,,
"USR0000APAM","2014-11-14",41.00,35.06,,,
"USR0000APAM","2014-11-15",33.98,30.02,,,
"USR0000APAM","2014-11-16",33.98,30.02,,,
"USR0000APAM","2014-11-17",30.02,26.96,,,
"USR0000APAM","2014-11-18",33.98,26.96,,,
"USR0000APAM","2014-11-19",35.06,26.06,,,
"USR0000APAM","2014-11-20",26.96,19.94,,,
"USR0000APAM","2014-11-21",17.96,12.02,,,
"USR0000APAM","2014-11-22",12.02,5.00,,,
"USR0000APAM","2014-11-23",10.04,5.00,,,
"USR0000APAM","2014-11-24",10.94,8.06,,,
"USR0000APAM","2014-11-25",6.98,1.04,,,
"USR0000APAM","2014-11-26",8.06,3.92,,,
"USR0000APAM","2014-11-27",10.94,3.92,,,
"USR0000APAM","2014-11-28",15.98,8.06,,,
"USR0000APAM","2014-11-29",12.02,6.98,,,
"USR0000APAM","2014-11-30",15.98,10.94,,,
"USR0000APAM","2014-12-01",17.06,12.02,,,
"USR0000APAM","2014-12-02",14.00,1.94,,,
"USR0000APAM","2014-12-03",10.04,8.06,,,
"USR0000APAM","2014-12-04",14.00,10.04,,,
"USR0000APAM","2014-12-05",10.94,1.94,,,
"USR0000APAM","2014-12-06",8.06,3.02,,,
"USR0000APAM","2014-12-07",8.06,3.92,,,
"USR0000APAM","2014-12-08",3.92,-5.08,,,
"USR0000APAM","2014-12-09",-0.94,-4.00,,,
"USR0000APAM","2014-12-10",-0.04,-5.98,,,
"USR0000APAM","2014-12-11",-5.08,-16.96,,,
"USR0000APAM","2014-12-12",-0.94,-16.06,,,
"USR0000APAM","2014-12-13",3.92,-0.94,,,
"USR0000APAM","2014-12-14",6.08,3.02,,,
"USR0000APAM","2014-12-15",1.94,-2.92,,,
"USR0000APAM","2014-12-16",19.04,-0.94,,,
"USR0000APAM","2014-12-17",19.04,10.94,,,
"USR0000APAM","2014-12-18",10.94,6.98,,,
"USR0000APAM","2014-12-19",15.98,12.02,,,
"USR0000APAM","2014-12-20",19.04,12.02,,,
"USR0000APAM","2014-12-21",21.92,17.06,,,
"USR0000APAM","2014-12-22",17.06,8.06,,,
"USR0000APAM","2014-12-23",6.98,-0.04,,,
"USR0000APAM","2014-12-24",10.04,-0.04,,,
"USR0000APAM","2014-12-25",12.92,10.04,,,
"USR0000APAM","2014-12-26",12.92,-7.96,,,
"USR0000APAM","2014-12-27",1.94,-13.00,,,
"USR0000APAM","2014-12-28",10.94,3.02,,,
"USR0000APAM","2014-12-29",17.06,10.04,,,
"USR0000APAM","2014-12-30",24.98,17.96,,,
"USR0000APAM","2014-12-31",24.08,21.02,,,
"USR0000APAM","2015-01-01",20.84,13.28,,,
"USR0000APAM","2015-01-02",13.64,8.96,,,
"USR0000APAM","2015-01-03",17.24,13.82,,,
"USR0000APAM","2015-01-04",15.98,12.38,,,
"USR0000APAM","2015-01-05",11.66,4.10,,,
"USR0000APAM","2015-01-06",11.84,6.08,,,
"USR0000APAM","2015-01-07",19.04,9.14,,,
"USR0000APAM","2015-01-08",21.74,17.96,,,
"USR0000APAM","2015-01-09",26.42,22.28,,,
"USR0000APAM","2015-01-10",22.28,15.08,,,
"USR0000APAM","2015-01-11",19.94,12.92,,,
"USR0000APAM","2015-01-12",22.10,17.60,,,
"USR0000APAM","2015-01-13",17.60,10.94,,,
"USR0000APAM","2015-01-14",21.38,15.26,,,
"USR0000APAM","2015-01-15",25.70,16.88,,,
"USR0000APAM","2015-01-16",21.74,17.06,,,
"USR0000APAM","2015-01-17",22.46,20.66,,,
"USR0000APAM","2015-01-18",23.36,10.94,,,
"USR0000APAM","2015-01-19",9.68,2.84,,,
"USR0000APAM","2015-01-20",15.26,10.94,,,
"USR0000APAM","2015-01-21",9.14,-4.90,,,
"USR0000APAM","2015-01-22",-5.26,-17.32,,,
"USR0000APAM","2015-01-23",-18.22,-22.00,,,
"USR0000APAM","2015-01-24",-19.48,-23.26,,,
"USR0000APAM","2015-01-25",-21.46,-23.26,,,
"USR0000APAM","2015-01-26",-12.46,-21.46,,,
"USR0000APAM","2015-01-27",-10.66,-19.66,,,
"USR0000APAM","2015-01-28",-5.44,-10.66,,,
"USR0000APAM","2015-01-29",-0.94,-6.16,,,
"USR0000APAM","2015-01-30",-0.58,-4.90,,,
"USR0000APAM","2015-01-31",14.36,-0.04,,,
"USR0000APAM","2015-02-01",19.22,13.46,,,
"USR0000APAM","2015-02-02",18.50,8.78,,,
"USR0000APAM","2015-02-03",9.86,-7.24,,,
"USR0000APAM","2015-02-04",-4.54,-8.14,,,
"USR0000APAM","2015-02-05",0.14,-6.52,,,
"USR0000APAM","2015-02-06",-5.44,-20.38,,,
"USR0000APAM","2015-02-07",-9.76,-24.16,,,
"USR0000APAM","2015-02-08",-8.32,-13.72,,,
"USR0000APAM","2015-02-09",0.32,-9.58,,,
"USR0000APAM","2015-02-10",6.26,-4.90,,,
"USR0000APAM","2015-02-11",8.78,3.02,,,
"USR0000APAM","2015-02-12",6.62,3.92,,,
"USR0000APAM","2015-02-13",19.58,6.08,,,
"USR0000APAM","2015-02-14",15.44,12.02,,,
"USR0000APAM","2015-02-15",13.82,12.38,,,
"USR0000APAM","2015-02-16",25.70,12.38,,,
"USR0000APAM","2015-02-17",24.80,21.92,,,
"USR0000APAM","2015-02-18",26.24,23.54,,,
"USR0000APAM","2015-02-19",24.08,18.32,,,
"USR0000APAM","2015-02-20",22.28,17.06,,,
"USR0000APAM","2015-02-21",27.14,21.02,,,
"USR0000APAM","2015-02-22",30.38,24.44,,,
"USR0000APAM","2015-02-23",30.20,25.16,,,
"USR0000APAM","2015-02-24",24.80,12.56,,,
"USR0000APAM","2015-02-25",12.38,8.06,,,
"USR0000APAM","2015-02-26",15.08,8.24,,,
"USR0000APAM","2015-02-27",20.12,15.44,,,
"USR0000APAM","2015-02-28",19.94,6.44,,,
"USR0000APAM","2015-03-01",7.16,-1.84,,,
"USR0000APAM","2015-03-02",16.70,5.90,,,
"USR0000APAM","2015-03-03",18.50,13.28,,,
"USR0000APAM","2015-03-04",15.80,10.76,,,
"USR0000APAM","2015-03-05",16.16,12.56,,,
"USR0000APAM","2015-03-06",12.92,7.16,,,
"USR0000APAM","2015-03-07",19.58,13.82,,,
"USR0000APAM","2015-03-08",17.24,-12.10,,,
"USR0000APAM","2015-03-09",-7.78,-12.28,,,
"USR0000APAM","2015-03-10",5.36,-12.46,,,
"USR0000APAM","2015-03-11",3.38,-13.18,,,
"USR0000APAM","2015-03-12",-13.54,-18.40,,,
"USR0000APAM","2015-03-13",-17.14,-23.44,,,
"USR0000APAM","2015-03-14",-18.58,-22.18,,,
"USR0000APAM","2015-03-15",-4.54,-18.58,,,
"USR0000APAM","2015-03-16",9.50,-8.68,,,
"USR0000APAM","2015-03-17",18.32,8.24,,,
"USR0000APAM","2015-03-18",25.34,18.50,,,
"USR0000APAM","2015-03-19",27.14,21.02,,,
"USR0000APAM","2015-03-20",28.58,22.46,,,
"USR0000APAM","2015-03-21",32.18,21.02,,,
"USR0000APAM","2015-03-22",21.92,14.18,,,
"USR0000APAM","2015-03-23",19.76,10.58,,,
"USR0000APAM","2015-03-24",17.78,12.20,,,
"USR0000APAM","2015-03-25",22.82,11.66,,,
"USR0000APAM","2015-03-26",26.78,17.96,,,
"USR0000APAM","2015-03-27",22.64,19.94,,,
"USR0000APAM","2015-03-28",23.54,15.26,,,
"USR0000APAM","2015-03-29",27.32,14.72,,,
"USR0000APAM","2015-03-30",25.88,22.64,,,
"USR0000APAM","2015-03-31",27.68,21.02,,,
"USR0000APAM","2015-04-01",21.92,19.04,,,
"USR0000APAM","2015-04-02",21.56,14.54,,,
"USR0000APAM","2015-04-03",15.26,10.40,,,
"USR0000APAM","2015-04-04",23.90,12.74,,,
"USR0000APAM","2015-04-05",12.56,8.24,,,
"USR0000APAM","2015-04-06",16.16,6.08,,,
"USR0000APAM","2015-04-07",24.98,16.16,,,
"USR0000APAM","2015-04-08",26.06,21.74,,,
"USR0000APAM","2015-04-09",27.50,22.82,,,
"USR0000APAM","2015-04-10",24.08,5.72,,,
"USR0000APAM","2015-04-11",8.42,0.86,,,
"USR0000APAM","2015-04-12",19.04,7.52,,,
"USR0000APAM","2015-04-13",22.46,13.10,,,
"USR0000APAM","2015-04-14",23.72,12.74,,,
"USR0000APAM","2015-04-15",29.12,16.52,,,
"USR0000APAM","2015-04-16",33.44,20.12,,,
"USR0000APAM","2015-04-17",29.48,22.46,,,
"USR0000APAM","2015-04-18",30.02,23.72,,,
"USR0000APAM","2015-04-19",37.04,30.02,,,
"USR0000APAM","2015-04-20",36.68,29.48,,,
"USR0000APAM","2015-04-21",32.54,22.46,,,
"USR0000APAM","2015-04-22",28.22,21.02,,,
"USR0000APAM","2015-04-23",32.18,26.78,,,
"USR0000APAM","2015-04-24",33.62,26.24,,,
"USR0000APAM","2015-04-25",38.12,26.78,,,
"USR0000APAM","2015-04-26",40.46,28.94,,,
"USR0000APAM","2015-04-27",33.80,29.66,,,
"USR0000APAM","2015-04-28",33.26,25.52,,,
"USR0000APAM","2015-04-29",32.36,24.98,,,
"USR0000APAM","2015-04-30",28.94,16.70,,,
"USR0000APAM","2015-05-01",35.24,26.42,,,
"USR0000APAM","2015-05-02",39.56,30.92,,,
"USR0000APAM","2015-05-03",40.82,32.54,,,
"USR0000APAM","2015-05-04",40.64,31.28,,,
"USR0000APAM","2015-05-05",28.94,19.76,,,
"USR0000APAM","2015-05-06",41.00,26.96,,,
"USR0000APAM","2015-05-07",41.72,37.58,,,
"USR0000APAM","2015-05-08",43.16,36.68,,,
"USR0000APAM","2015-05-09",48.02,38.12,,,
"USR0000APAM","2015-05-10",41.72,36.68,,,
"USR0000APAM","2015-05-11",41.72,34.34,,,
"USR0000APAM","2015-05-12",45.14,36.50,,,
"USR0000APAM","2015-05-13",47.48,39.38,,,
"USR0000APAM","2015-05-14",51.44,43.16,,,
"USR0000APAM","2015-05-15",54.32,47.66,,,
"USR0000APAM","2015-05-16",51.26,43.16,,,
"USR0000APAM","2015-05-17",59.54,42.62,,,
"USR0000APAM","2015-05-18",61.34,50.00,,,
"USR0000APAM","2015-05-19",55.04,47.66,,,
"USR0000APAM","2015-05-20",59.54,46.22,,,
"USR0000APAM","2015-05-21",52.88,45.14,,,
"USR0000APAM","2015-05-22",57.38,42.08,,,
"USR0000APAM","2015-05-23",69.08,50.00,,,
"USR0000APAM","2015-05-24",64.04,50.54,,,
"USR0000APAM","2015-05-25",49.46,44.06,,,
"USR0000APAM","2015-05-26",57.92,41.54,,,
"USR0000APAM","2015-05-27",60.08,50.18,,,
"USR0000APAM","2015-05-28",55.04,42.26,,,
"USR0000APAM","2015-05-29",46.04,36.86,,,
"USR0000APAM","2015-05-30",50.90,35.42,,,
"USR0000APAM","2015-05-31",39.02,26.42,,,
"USR0000APAM","2015-06-01",38.66,24.62,,,
"USR0000APAM","2015-06-02",36.32,25.88,,,
"USR0000APAM","2015-06-03",35.78,25.52,,,
"USR0000APAM","2015-06-04",34.52,28.04,,,
"USR0000APAM","2015-06-05",48.20,29.48,,,
"USR0000APAM","2015-06-06",51.44,38.48,,,
"USR0000APAM","2015-06-07",50.72,42.62,,,
"USR0000APAM","2015-06-08",47.12,38.30,,,
"USR0000APAM","2015-06-09",42.44,36.86,,,
"USR0000APAM","2015-06-10",46.04,31.64,,,
"USR0000APAM","2015-06-11",37.22,30.02,,,
"USR0000APAM","2015-06-12",46.58,30.74,,,
"USR0000APAM","2015-06-13",53.24,41.36,,,
"USR0000APAM","2015-06-14",67.82,48.02,,,